Orbital Elements at Epoch 2459000.5 (2020-May-31.0) TDB
Reference: JPL 23 (heliocentric ecliptic J2000)
Element | Value | Uncertainty (1-sigma) | Units |
e | .08357448968688713 | 3.857e-08 | |
a | 2.995805247225378 | 1.5922e-08 | au |
q | 2.745432352487219 | 1.1492e-07 | au |
i | 8.85411347429871 | 3.8347e-06 | deg |
node | 179.3124904573813 | 2.6386e-05 | deg |
peri | 245.5575650750982 | 3.6732e-05 | deg |
M | 184.9170958447273 | 2.8243e-05 | deg |
tp | 2459921.606895646434 (2022-Dec-08.10689565) | 0.00015321 | TDB |
period | 1893.951234317185 5.19 | 1.5099e-05 4.134e-08 | d yr |
n | .1900788116805914 | 1.5154e-09 | deg/d |
Q | 3.246178141963538 | 1.7253e-08 | au |
|
| | Orbit Determination Parameters
Additional Information
|